Station Historical Data
Daily Summary for January 25, 2017 Units:  Metric    English   Both
« Previous Day
Next Day »
Daily Weekly Monthly Yearly Custom
  High: Low: Average:
Temperature: 8.3 °C 0 °C 3.3 °C
Dew Point: 5.4 °C -2.4 °C 1.2 °C
Humidity: 93% 80% 86%
Wind Speed: 25.7km/h 0km/h 7.4km/h
Wind Gust: 33.8km/h - -
Wind- - SW
Pressure: 1007.7 hPa 996.2 hPa -
Precipitation: 0 mm    
Historical Graphs
 
 
Tabular Data for January 25, 2017
Time Temperature Dew Point Pressure Wind Wind Speed Wind Gust Humidity Rainfall Rate (Hourly)
00:04 1.1 °C -1.3 °C 1005.6 hPa West 6.4 km/h 12.9 km/h 84% 0 mm
00:09 1.1 °C -1.2 °C 1005.6 hPa West 6.4 km/h 12.9 km/h 85% 0 mm
00:14 1.1 °C -1.2 °C 1005.6 hPa West 6.4 km/h 12.9 km/h 85% 0 mm
00:19 1.1 °C -1.3 °C 1006 hPa West 6.4 km/h 12.9 km/h 84% 0 mm
00:24 1.1 °C -1.2 °C 1006 hPa WSW 8 km/h 11.3 km/h 85% 0 mm
00:29 1.1 °C -1.2 °C 1006 hPa West 3.2 km/h 12.9 km/h 85% 0 mm
00:34 1.1 °C -1.3 °C 1006 hPa WNW 12.9 km/h 12.9 km/h 84% 0 mm
00:39 1.1 °C -1.1 °C 1006 hPa West 6.4 km/h 12.9 km/h 85% 0 mm
00:44 1.1 °C -1.1 °C 1006 hPa West 6.4 km/h 12.9 km/h 85% 0 mm
00:49 1.1 °C -1.1 °C 1006 hPa NW 9.7 km/h 16.1 km/h 85% 0 mm
00:54 1.1 °C -1.1 °C 1006.3 hPa West 4.8 km/h 17.7 km/h 85% 0 mm
00:59 1.1 °C -1.1 °C 1006.3 hPa WNW 6.4 km/h 12.9 km/h 85% 0 mm
01:04 1.1 °C -1.1 °C 1006.3 hPa West 6.4 km/h 11.3 km/h 85% 0 mm
01:09 1.1 °C -1.1 °C 1006.3 hPa NW 6.4 km/h 17.7 km/h 85% 0 mm
01:14 1.1 °C -1.1 °C 1006.3 hPa West 8 km/h 17.7 km/h 85% 0 mm
01:19 1.1 °C -1.2 °C 1006.7 hPa West 4.8 km/h 11.3 km/h 85% 0 mm
01:24 1.1 °C -1.2 °C 1006.3 hPa WNW 9.7 km/h 17.7 km/h 85% 0 mm
01:29 1 °C -1.2 °C 1006.7 hPa WNW 16.1 km/h 19.3 km/h 85% 0 mm
01:34 1 °C -1.4 °C 1006.7 hPa WNW 6.4 km/h 19.3 km/h 84% 0 mm
01:39 1 °C -1.6 °C 1006.7 hPa WNW 3.2 km/h 19.3 km/h 83% 0 mm
01:44 1 °C -1.6 °C 1006.7 hPa West 8 km/h 19.3 km/h 83% 0 mm
01:49 1 °C -1.6 °C 1006.3 hPa West 8 km/h 16.1 km/h 83% 0 mm
01:54 1 °C -1.6 °C 1006.7 hPa West 9.7 km/h 17.7 km/h 83% 0 mm
01:59 1 °C -1.6 °C 1006.7 hPa West 8 km/h 17.7 km/h 83% 0 mm
02:04 0.9 °C -1.6 °C 1006.7 hPa West 6.4 km/h 16.1 km/h 83% 0 mm
02:09 0.9 °C -1.7 °C 1006.7 hPa West 11.3 km/h 19.3 km/h 83% 0 mm
02:14 0.8 °C -1.7 °C 1006.7 hPa WNW 6.4 km/h 17.7 km/h 83% 0 mm
02:19 0.8 °C -1.9 °C 1006.7 hPa West 8 km/h 17.7 km/h 82% 0 mm
02:24 0.8 °C -1.9 °C 1007 hPa West 11.3 km/h 14.5 km/h 82% 0 mm
02:29 0.7 °C -2 °C 1006.7 hPa West 8 km/h 12.9 km/h 82% 0 mm
02:34 0.7 °C -2.2 °C 1007 hPa WNW 6.4 km/h 17.7 km/h 81% 0 mm
02:39 0.6 °C -2.3 °C 1007 hPa West 6.4 km/h 12.9 km/h 81% 0 mm
02:44 0.6 °C -2.2 °C 1007 hPa WNW 3.2 km/h 17.7 km/h 82% 0 mm
02:49 0.4 °C -2.3 °C 1007 hPa WNW 6.4 km/h 17.7 km/h 82% 0 mm
02:54 0.4 °C -2.3 °C 1007 hPa WNW 6.4 km/h 19.3 km/h 82% 0 mm
02:59 0.4 °C -2.2 °C 1007 hPa West 8 km/h 19.3 km/h 83% 0 mm
03:04 0.3 °C -2.3 °C 1007 hPa West 8 km/h 16.1 km/h 83% 0 mm
03:09 0.2 °C -2.3 °C 1007 hPa WNW 12.9 km/h 22.5 km/h 83% 0 mm
03:14 0.2 °C -2.4 °C 1007 hPa WNW 8 km/h 22.5 km/h 83% 0 mm
03:19 0.2 °C -2.4 °C 1007 hPa West 11.3 km/h 16.1 km/h 83% 0 mm
03:24 0.1 °C -2.3 °C 1007.3 hPa WNW 6.4 km/h 16.1 km/h 84% 0 mm
03:29 0.1 °C -2.3 °C 1007 hPa West 6.4 km/h 11.3 km/h 84% 0 mm
03:34 0 °C -2.4 °C 1007.3 hPa West 8 km/h 14.5 km/h 84% 0 mm
03:39 0 °C -2.2 °C 1007.3 hPa West 4.8 km/h 11.3 km/h 85% 0 mm
03:44 0.1 °C -2.2 °C 1007.3 hPa WSW 4.8 km/h 11.3 km/h 85% 0 mm
03:49 0.1 °C -2.1 °C 1007.3 hPa WNW 6.4 km/h 11.3 km/h 85% 0 mm
03:54 0.2 °C -2.1 °C 1007.3 hPa West 6.4 km/h 14.5 km/h 85% 0 mm
03:59 0.2 °C -1.8 °C 1007.3 hPa West 4.8 km/h 14.5 km/h 86% 0 mm
04:04 0.3 °C -1.8 °C 1007.3 hPa West 4.8 km/h 12.9 km/h 86% 0 mm
04:09 0.3 °C -1.7 °C 1007.3 hPa West 4.8 km/h 9.7 km/h 86% 0 mm
04:14 0.4 °C -1.6 °C 1007.3 hPa West 4.8 km/h 9.7 km/h 86% 0 mm
04:19 0.6 °C -1.5 °C 1007.7 hPa West 8 km/h 12.9 km/h 86% 0 mm
04:24 0.6 °C -1.3 °C 1007.7 hPa WSW 4.8 km/h 12.9 km/h 87% 0 mm
04:29 0.7 °C -1.2 °C 1007.7 hPa West 3.2 km/h 8 km/h 87% 0 mm
04:34 0.8 °C -1.2 °C 1007.3 hPa WSW 4.8 km/h 9.7 km/h 87% 0 mm
04:39 0.8 °C -1.1 °C 1007.3 hPa West 4.8 km/h 9.7 km/h 87% 0 mm
04:44 0.9 °C -1.1 °C 1007.3 hPa West 4.8 km/h 8 km/h 87% 0 mm
04:49 0.9 °C -1 °C 1007.3 hPa West 4.8 km/h 8 km/h 87% 0 mm
04:54 1 °C -0.9 °C 1007.3 hPa WNW 3.2 km/h 9.7 km/h 87% 0 mm
04:59 1.1 °C -0.9 °C 1007.3 hPa West 4.8 km/h 9.7 km/h 87% 0 mm
05:04 1.1 °C -0.9 °C 1007.3 hPa West 4.8 km/h 8 km/h 87% 0 mm
05:09 1.1 °C -0.7 °C 1007.3 hPa West 3.2 km/h 11.3 km/h 88% 0 mm
05:14 1.2 °C -0.6 °C 1007.3 hPa West 4.8 km/h 9.7 km/h 88% 0 mm
05:19 1.2 °C -0.6 °C 1007.3 hPa West 3.2 km/h 11.3 km/h 88% 0 mm
05:24 1.3 °C -0.5 °C 1007.3 hPa WSW 1.6 km/h 9.7 km/h 88% 0 mm
05:29 1.3 °C -0.5 °C 1007.3 hPa WSW 4.8 km/h 9.7 km/h 88% 0 mm
05:34 1.3 °C -0.3 °C 1007.3 hPa WSW 4.8 km/h 12.9 km/h 89% 0 mm
05:39 1.3 °C -0.3 °C 1007.7 hPa WSW 4.8 km/h 12.9 km/h 89% 0 mm
05:44 1.4 °C -0.2 °C 1007.3 hPa West 4.8 km/h 9.7 km/h 89% 0 mm
05:49 1.4 °C -0.2 °C 1007.7 hPa WSW 4.8 km/h 9.7 km/h 89% 0 mm
05:54 1.6 °C 0.1 °C 1007.7 hPa WSW 4.8 km/h 9.7 km/h 90% 0 mm
05:59 1.6 °C 0.1 °C 1007.7 hPa SW 4.8 km/h 9.7 km/h 90% 0.25 mm
06:04 1.7 °C 0.2 °C 1007.7 hPa SW 4.8 km/h 11.3 km/h 90% 0.25 mm
06:09 1.7 °C 0.3 °C 1007.3 hPa West 8 km/h 12.9 km/h 91% 0.25 mm
06:14 1.7 °C 0.4 °C 1007.3 hPa WSW 3.2 km/h 11.3 km/h 91% 0.25 mm
06:19 1.7 °C 0.4 °C 1007.3 hPa SSW 6.4 km/h 12.9 km/h 91% 0.25 mm
06:24 1.8 °C 0.4 °C 1007.3 hPa West 4.8 km/h 9.7 km/h 91% 0.25 mm
06:29 1.8 °C 0.4 °C 1007.3 hPa West 6.4 km/h 11.3 km/h 91% 0.25 mm
06:34 1.8 °C 0.4 °C 1007.3 hPa WSW 6.4 km/h 12.9 km/h 91% 0.25 mm
06:39 1.8 °C 0.6 °C 1007.3 hPa WSW 4.8 km/h 12.9 km/h 92% 0.25 mm
06:44 1.8 °C 0.6 °C 1007.3 hPa WSW 6.4 km/h 17.7 km/h 92% 0.25 mm
06:49 1.8 °C 0.6 °C 1007.3 hPa WSW 6.4 km/h 17.7 km/h 92% 0.25 mm
06:54 1.8 °C 0.6 °C 1007.3 hPa WNW 4.8 km/h 12.9 km/h 92% 0.25 mm
06:59 1.8 °C 0.7 °C 1007 hPa West 6.4 km/h 11.3 km/h 92% 0 mm
07:04 1.8 °C 0.7 °C 1007 hPa WSW 8 km/h 16.1 km/h 92% 0 mm
07:09 1.8 °C 0.7 °C 1007 hPa WSW 6.4 km/h 16.1 km/h 92% 0 mm
07:14 1.8 °C 0.7 °C 1007 hPa WSW 6.4 km/h 12.9 km/h 92% 0 mm
07:19 1.8 °C 0.7 °C 1007 hPa SW 8 km/h 14.5 km/h 92% 0 mm
07:24 1.8 °C 0.7 °C 1007 hPa West 4.8 km/h 14.5 km/h 92% 0 mm
07:29 1.8 °C 0.7 °C 1007 hPa SW 11.3 km/h 12.9 km/h 92% 0.25 mm
07:34 1.8 °C 0.7 °C 1007 hPa SW 11.3 km/h 16.1 km/h 92% 0.25 mm
07:39 1.8 °C 0.7 °C 1007 hPa WSW 9.7 km/h 17.7 km/h 92% 0.25 mm
07:44 1.8 °C 0.6 °C 1007 hPa WSW 9.7 km/h 17.7 km/h 92% 0.25 mm
07:49 1.8 °C 0.7 °C 1007 hPa WSW 11.3 km/h 16.1 km/h 92% 0.25 mm
07:54 1.8 °C 0.7 °C 1007 hPa WSW 6.4 km/h 17.7 km/h 92% 0.25 mm
07:59 1.9 °C 0.7 °C 1007 hPa West 9.7 km/h 16.1 km/h 92% 0.25 mm
08:04 1.9 °C 0.7 °C 1006.7 hPa WSW 9.7 km/h 20.9 km/h 92% 0.51 mm
08:09 1.9 °C 0.8 °C 1006.7 hPa WSW 11.3 km/h 20.9 km/h 92% 0.51 mm
08:14 1.9 °C 0.8 °C 1006.7 hPa WSW 9.7 km/h 19.3 km/h 92% 0.51 mm
08:19 2 °C 1 °C 1007 hPa WSW 9.7 km/h 20.9 km/h 93% 0.51 mm
08:24 2.1 °C 1.1 °C 1007 hPa WSW 9.7 km/h 20.9 km/h 93% 0.51 mm
08:29 2.1 °C 1.1 °C 1007 hPa West 8 km/h 20.9 km/h 93% 0.25 mm
08:34 2.2 °C 1.2 °C 1006.7 hPa WSW 6.4 km/h 19.3 km/h 93% 0.25 mm
08:39 2.2 °C 1.2 °C 1006.7 hPa WSW 12.9 km/h 19.3 km/h 93% 0.51 mm
08:44 2.2 °C 1.2 °C 1007 hPa WSW 9.7 km/h 19.3 km/h 93% 0.51 mm
08:49 2.3 °C 1.3 °C 1007 hPa WSW 9.7 km/h 19.3 km/h 93% 0.51 mm
08:54 2.2 °C 1.2 °C 1007 hPa WSW 11.3 km/h 25.7 km/h 93% 0.51 mm
08:59 2.2 °C 1.2 °C 1007 hPa West 8 km/h 25.7 km/h 93% 0.51 mm
09:04 2.2 °C 1.2 °C 1007 hPa SW 14.5 km/h 20.9 km/h 93% 0.51 mm
09:09 2.3 °C 1.3 °C 1007 hPa WSW 14.5 km/h 22.5 km/h 93% 0.51 mm
09:14 2.3 °C 1.3 °C 1007 hPa WSW 11.3 km/h 22.5 km/h 93% 0.51 mm
09:19 2.3 °C 1.3 °C 1007 hPa WSW 9.7 km/h 19.3 km/h 93% 0.51 mm
09:24 2.3 °C 1.3 °C 1006.7 hPa WSW 9.7 km/h 20.9 km/h 93% 0.51 mm
09:29 2.3 °C 1.3 °C 1006.7 hPa WSW 9.7 km/h 20.9 km/h 93% 0.51 mm
09:34 2.4 °C 1.4 °C 1006.7 hPa WSW 9.7 km/h 16.1 km/h 93% 0.76 mm
09:39 2.4 °C 1.4 °C 1006.3 hPa West 11.3 km/h 17.7 km/h 93% 0.51 mm
09:44 2.4 °C 1.4 °C 1006.3 hPa WSW 19.3 km/h 19.3 km/h 93% 0.51 mm
09:49 2.4 °C 1.4 °C 1006.3 hPa WSW 9.7 km/h 19.3 km/h 93% 0.51 mm
09:54 2.5 °C 1.5 °C 1006 hPa WSW 4.8 km/h 19.3 km/h 93% 0.51 mm
09:59 2.5 °C 1.5 °C 1006 hPa SSW 9.7 km/h 19.3 km/h 93% 0.76 mm
10:04 2.6 °C 1.6 °C 1006 hPa SW 16.1 km/h 17.7 km/h 93% 0.51 mm
10:09 2.5 °C 1.5 °C 1006.3 hPa SW 8 km/h 25.7 km/h 93% 0.51 mm
10:14 2.5 °C 1.5 °C 1006 hPa WSW 9.7 km/h 20.9 km/h 93% 0.51 mm
10:19 2.5 °C 1.5 °C 1006.3 hPa WSW 9.7 km/h 20.9 km/h 93% 0.51 mm
10:24 2.6 °C 1.6 °C 1006.3 hPa WSW 11.3 km/h 20.9 km/h 93% 0.51 mm
10:29 2.7 °C 1.7 °C 1006.3 hPa WSW 11.3 km/h 22.5 km/h 93% 0.51 mm
10:34 2.7 °C 1.5 °C 1006.3 hPa WSW 11.3 km/h 22.5 km/h 92% 0.51 mm
10:39 2.7 °C 1.6 °C 1006 hPa SSW 11.3 km/h 30.6 km/h 92% 0.51 mm
10:49 2.8 °C 1.6 °C 1006.3 hPa WSW 14.5 km/h 24.1 km/h 92% 0.51 mm
10:54 2.8 °C 1.6 °C 1006.7 hPa WSW 12.9 km/h 24.1 km/h 92% 0.51 mm
10:59 2.8 °C 1.6 °C 1006.7 hPa South 6.4 km/h 22.5 km/h 92% 0.25 mm
11:04 2.8 °C 1.7 °C 1006.3 hPa WSW 6.4 km/h 25.7 km/h 92% 0.25 mm
11:09 2.8 °C 1.6 °C 1006.3 hPa SW 11.3 km/h 22.5 km/h 92% 0.25 mm
11:14 2.8 °C 1.4 °C 1006.3 hPa SW 8 km/h 29 km/h 91% 0.25 mm
11:19 2.8 °C 1.4 °C 1006 hPa WSW 6.4 km/h 24.1 km/h 91% 0.25 mm
11:24 2.9 °C 1.6 °C 1005.6 hPa WSW 11.3 km/h 24.1 km/h 91% 0.25 mm
11:29 2.9 °C 1.6 °C 1005.6 hPa WSW 11.3 km/h 22.5 km/h 91% 0.25 mm
11:34 3.1 °C 1.6 °C 1005.6 hPa WSW 11.3 km/h 22.5 km/h 90% 0 mm
11:39 3.2 °C 1.6 °C 1005.6 hPa WSW 12.9 km/h 24.1 km/h 89% 0 mm
11:44 3.1 °C 1.5 °C 1005.3 hPa SW 11.3 km/h 29 km/h 89% 0 mm
11:49 3.1 °C 1.4 °C 1005 hPa NW 11.3 km/h 22.5 km/h 89% 0 mm
11:54 3.2 °C 1.6 °C 1004.6 hPa WSW 12.9 km/h 22.5 km/h 89% 0 mm
11:59 3.2 °C 1.4 °C 1004.6 hPa WSW 11.3 km/h 20.9 km/h 88% 0 mm
12:04 3.3 °C 1.6 °C 1004.3 hPa WSW 11.3 km/h 20.9 km/h 88% 0 mm
12:09 3.4 °C 1.7 °C 1004.6 hPa West 12.9 km/h 17.7 km/h 88% 0 mm
12:14 3.4 °C 1.4 °C 1005 hPa WSW 16.1 km/h 22.5 km/h 87% 0 mm
12:19 3.3 °C 1.4 °C 1005 hPa SW 16.1 km/h 32.2 km/h 87% 0 mm
12:24 3.3 °C 1.3 °C 1005 hPa WSW 17.7 km/h 22.5 km/h 87% 0 mm
12:29 3.2 °C 1.2 °C 1005 hPa WSW 11.3 km/h 24.1 km/h 87% 0 mm
12:34 3.2 °C 1.2 °C 1005 hPa WSW 11.3 km/h 24.1 km/h 87% 0 mm
12:39 3.2 °C 1.3 °C 1005 hPa WSW 12.9 km/h 27.4 km/h 87% 0 mm
12:44 3.4 °C 1.4 °C 1004.6 hPa SSW 16.1 km/h 24.1 km/h 87% 0 mm
12:49 3.5 °C 1.4 °C 1004.6 hPa SW 9.7 km/h 17.7 km/h 86% 0 mm
12:54 3.6 °C 1.4 °C 1004.6 hPa WSW 20.9 km/h 27.4 km/h 86% 0 mm
12:59 3.7 °C 1.4 °C 1004.6 hPa WSW 12.9 km/h 27.4 km/h 85% 0 mm
13:04 3.6 °C 1.3 °C 1004.6 hPa WSW 12.9 km/h 25.7 km/h 85% 0 mm
13:09 3.6 °C 1.2 °C 1004.3 hPa WSW 12.9 km/h 22.5 km/h 84% 0 mm
13:14 3.7 °C 1.2 °C 1003.9 hPa West 6.4 km/h 20.9 km/h 84% 0 mm
13:19 3.7 °C 1.1 °C 1003.9 hPa SW 9.7 km/h 24.1 km/h 83% 0 mm
13:24 3.8 °C 1.1 °C 1003.3 hPa SW 3.2 km/h 19.3 km/h 82% 0 mm
13:29 3.9 °C 1.2 °C 1003.3 hPa West 11.3 km/h 17.7 km/h 82% 0 mm
13:34 4 °C 1.1 °C 1003.3 hPa WSW 8 km/h 17.7 km/h 81% 0 mm
13:39 4.1 °C 1.1 °C 1002.9 hPa WSW 8 km/h 16.1 km/h 81% 0 mm
13:44 4.1 °C 1.1 °C 1002.6 hPa WSW 6.4 km/h 17.7 km/h 81% 0 mm
13:49 3.9 °C 0.8 °C 1002.6 hPa SW 12.9 km/h 16.1 km/h 80% 0 mm
13:54 3.9 °C 1 °C 1002.3 hPa SW 6.4 km/h 12.9 km/h 81% 0 mm
13:59 3.9 °C 1 °C 1002.3 hPa South 9.7 km/h 16.1 km/h 81% 0 mm
14:04 3.9 °C 0.9 °C 1002.3 hPa WSW 8 km/h 16.1 km/h 81% 0 mm
14:09 3.8 °C 0.7 °C 1002.3 hPa WSW 8 km/h 16.1 km/h 80% 0 mm
14:14 3.8 °C 0.7 °C 1002.3 hPa WSW 8 km/h 17.7 km/h 80% 0 mm
14:19 3.8 °C 0.7 °C 1002.3 hPa SW 4.8 km/h 12.9 km/h 80% 0 mm
14:24 3.8 °C 0.7 °C 1002.3 hPa SW 4.8 km/h 9.7 km/h 80% 0 mm
14:29 3.8 °C 0.9 °C 1002.3 hPa WSW 4.8 km/h 9.7 km/h 81% 0 mm
14:34 3.8 °C 0.7 °C 1001.9 hPa WSW 6.4 km/h 9.7 km/h 80% 0 mm
14:39 3.8 °C 0.7 °C 1002.3 hPa WSW 4.8 km/h 9.7 km/h 80% 0 mm
14:44 3.8 °C 0.7 °C 1002.3 hPa WSW 4.8 km/h 11.3 km/h 80% 0 mm
14:49 3.8 °C 0.7 °C 1001.9 hPa WSW 4.8 km/h 11.3 km/h 80% 0 mm
14:54 3.8 °C 0.9 °C 1001.6 hPa WSW 1.6 km/h 6.4 km/h 81% 0 mm
14:59 3.9 °C 1.2 °C 1001.6 hPa WSW 4.8 km/h 6.4 km/h 82% 0 mm
15:04 3.9 °C 1 °C 1001.2 hPa Calm   6.4 km/h 81% 0 mm
15:09 4 °C 1.1 °C 1001.2 hPa WSW 1.6 km/h 6.4 km/h 81% 0 mm
15:14 4.1 °C 0.9 °C 1001.2 hPa West 1.6 km/h 6.4 km/h 80% 0 mm
15:19 4.1 °C 1.1 °C 1001.6 hPa WSW 3.2 km/h 6.4 km/h 81% 0 mm
15:24 4.1 °C 1.1 °C 1001.2 hPa WSW 3.2 km/h 6.4 km/h 81% 0 mm
15:29 4.1 °C 1.1 °C 1001.2 hPa WSW 3.2 km/h 6.4 km/h 81% 0 mm
15:34 4.1 °C 1.3 °C 1001.2 hPa WSW 1.6 km/h 4.8 km/h 82% 0 mm
15:39 4.2 °C 1.4 °C 1001.2 hPa SSW 3.2 km/h 6.4 km/h 82% 0 mm
15:44 4.2 °C 1.2 °C 1001.2 hPa SSW 3.2 km/h 6.4 km/h 81% 0 mm
15:49 4.2 °C 1.2 °C 1001.6 hPa SSW 3.2 km/h 6.4 km/h 81% 0 mm
15:54 4.2 °C 1.4 °C 1001.2 hPa SSW 1.6 km/h 6.4 km/h 82% 0 mm
15:59 4.1 °C 1.3 °C 1001.2 hPa Calm   3.2 km/h 82% 0 mm
16:04 4.1 °C 1.1 °C 1001.2 hPa Calm   1.6 km/h 81% 0 mm
16:09 4.1 °C 1.3 °C 1001.2 hPa SW 1.6 km/h 4.8 km/h 82% 0 mm
16:14 4.1 °C 1.3 °C 1001.2 hPa SW 1.6 km/h 4.8 km/h 82% 0 mm
16:19 4.1 °C 1.3 °C 1000.9 hPa Calm   4.8 km/h 82% 0 mm
16:24 4.2 °C 1.4 °C 1000.6 hPa ESE 1.6 km/h 4.8 km/h 82% 0 mm
16:29 4.2 °C 1.4 °C 1000.6 hPa Calm   3.2 km/h 82% 0 mm
16:34 4.2 °C 1.4 °C 1000.2 hPa East 4.8 km/h 4.8 km/h 82% 0 mm
16:39 4.2 °C 1.4 °C 999.9 hPa ESE 3.2 km/h 4.8 km/h 82% 0 mm
16:44 4.2 °C 1.6 °C 999.9 hPa ESE 1.6 km/h 4.8 km/h 83% 0 mm
16:49 4.2 °C 1.6 °C 999.9 hPa East 1.6 km/h 8 km/h 83% 0 mm
16:54 4.2 °C 1.6 °C 999.9 hPa East 1.6 km/h 8 km/h 83% 0 mm
16:59 4.2 °C 1.6 °C 999.5 hPa East 1.6 km/h 8 km/h 83% 0 mm
17:04 4.3 °C 1.7 °C 999.2 hPa ENE 3.2 km/h 8 km/h 83% 0 mm
17:09 4.3 °C 1.7 °C 999.2 hPa Calm   8 km/h 83% 0 mm
17:14 4.3 °C 1.7 °C 999.2 hPa East 1.6 km/h 8 km/h 83% 0 mm
17:19 4.3 °C 1.7 °C 999.2 hPa ESE 1.6 km/h 8 km/h 83% 0 mm
17:24 4.3 °C 1.7 °C 999.2 hPa Calm   6.4 km/h 83% 0 mm
17:29 4.2 °C 1.6 °C 999.2 hPa SE 1.6 km/h 4.8 km/h 83% 0 mm
17:34 4.2 °C 1.6 °C 999.2 hPa SE 3.2 km/h 8 km/h 83% 0 mm
17:39 4.3 °C 1.7 °C 998.9 hPa ENE 1.6 km/h 8 km/h 83% 0 mm
17:44 4.3 °C 1.7 °C 998.9 hPa ESE 1.6 km/h 6.4 km/h 83% 0 mm
17:49 4.3 °C 1.7 °C 998.9 hPa East 1.6 km/h 8 km/h 83% 0 mm
17:54 4.3 °C 1.7 °C 998.5 hPa ESE 3.2 km/h 8 km/h 83% 0 mm
17:59 4.3 °C 1.7 °C 998.5 hPa ESE 3.2 km/h 8 km/h 83% 0 mm
18:04 4.3 °C 1.7 °C 998.9 hPa ESE 1.6 km/h 8 km/h 83% 0 mm
18:09 4.3 °C 1.7 °C 998.9 hPa SE 4.8 km/h 4.8 km/h 83% 0 mm
18:14 4.3 °C 1.7 °C 998.9 hPa SE 1.6 km/h 6.4 km/h 83% 0 mm
18:19 4.3 °C 1.7 °C 998.9 hPa SE 1.6 km/h 6.4 km/h 83% 0 mm
18:24 4.3 °C 1.8 °C 998.9 hPa SSE 1.6 km/h 6.4 km/h 84% 0 mm
18:29 4.2 °C 1.6 °C 998.5 hPa SE 3.2 km/h 8 km/h 83% 0 mm
18:34 4.2 °C 1.8 °C 998.5 hPa SE 4.8 km/h 8 km/h 84% 0 mm
18:39 4.2 °C 1.8 °C 998.5 hPa SE 3.2 km/h 6.4 km/h 84% 0 mm
18:44 4.3 °C 1.8 °C 998.9 hPa Calm   6.4 km/h 84% 0 mm
18:49 4.3 °C 1.8 °C 998.9 hPa Calm   6.4 km/h 84% 0 mm
18:54 4.2 °C 1.8 °C 998.9 hPa Calm     84% 0 mm
18:59 4.2 °C 1.8 °C 998.9 hPa Calm   8 km/h 84% 0 mm
19:04 4.3 °C 1.8 °C 998.9 hPa SE 1.6 km/h 8 km/h 84% 0 mm
19:09 4.3 °C 1.8 °C 998.9 hPa SE 3.2 km/h 4.8 km/h 84% 0 mm
19:14 4.3 °C 1.9 °C 998.9 hPa SSE 3.2 km/h 6.4 km/h 84% 0 mm
19:19 4.3 °C 1.9 °C 998.9 hPa SSW 1.6 km/h 6.4 km/h 84% 0 mm
19:24 4.3 °C 1.9 °C 998.9 hPa South 3.2 km/h 8 km/h 84% 0 mm
19:29 4.4 °C 1.9 °C 998.9 hPa SSW 6.4 km/h 6.4 km/h 84% 0 mm
19:34 4.4 °C 1.9 °C 998.5 hPa South 4.8 km/h 8 km/h 84% 0 mm
19:39 4.4 °C 2 °C 998.9 hPa South 4.8 km/h 8 km/h 84% 0 mm
19:44 4.5 °C 2.1 °C 998.5 hPa South 6.4 km/h 8 km/h 84% 0 mm
19:49 4.6 °C 2.1 °C 998.9 hPa South 8 km/h 9.7 km/h 84% 0 mm
19:54 4.6 °C 2.1 °C 998.9 hPa South 4.8 km/h 11.3 km/h 84% 0 mm
19:59 4.7 °C 2.2 °C 998.5 hPa South 4.8 km/h 11.3 km/h 84% 0 mm
20:04 4.7 °C 2.2 °C 998.5 hPa South 3.2 km/h 8 km/h 84% 0 mm
20:09 4.8 °C 2.3 °C 998.5 hPa South 4.8 km/h 8 km/h 84% 0 mm
20:14 4.8 °C 2.3 °C 998.2 hPa South 6.4 km/h 9.7 km/h 84% 0 mm
20:19 4.9 °C 2.6 °C 998.2 hPa SSW 3.2 km/h 11.3 km/h 85% 0 mm
20:24 5 °C 2.7 °C 998.2 hPa SSW 4.8 km/h 11.3 km/h 85% 0 mm
20:29 5.1 °C 2.7 °C 998.2 hPa SSW 4.8 km/h 9.7 km/h 85% 0 mm
20:34 5.1 °C 2.8 °C 998.2 hPa SSW 3.2 km/h 8 km/h 85% 0 mm
20:39 5.2 °C 2.9 °C 998.2 hPa SW 4.8 km/h 6.4 km/h 85% 0 mm
20:44 5.3 °C 3 °C 998.2 hPa SW 3.2 km/h 4.8 km/h 85% 0 mm
20:49 5.4 °C 3.2 °C 998.2 hPa SW 1.6 km/h 6.4 km/h 86% 0 mm
20:54 5.5 °C 3.5 °C 998.2 hPa SW 4.8 km/h 11.3 km/h 87% 0 mm
20:59 5.7 °C 3.8 °C 997.9 hPa SW 4.8 km/h 11.3 km/h 88% 0 mm
21:04 5.9 °C 4.1 °C 997.9 hPa SW 9.7 km/h 11.3 km/h 88% 0.25 mm
21:09 6.1 °C 4.4 °C 997.9 hPa SW 3.2 km/h 12.9 km/h 89% 0.25 mm
21:14 6.2 °C 4.6 °C 997.9 hPa SW 6.4 km/h 14.5 km/h 89% 0.25 mm
21:19 6.3 °C 4.7 °C 997.5 hPa WSW 8 km/h 12.9 km/h 89% 0.25 mm
21:24 6.4 °C 4.6 °C 997.9 hPa SW 6.4 km/h 12.9 km/h 88% 0.25 mm
21:29 6.6 °C 4.7 °C 997.5 hPa SW 8 km/h 19.3 km/h 88% 0.25 mm
21:34 6.8 °C 4.9 °C 997.5 hPa SW 9.7 km/h 19.3 km/h 88% 0.25 mm
21:39 6.9 °C 4.9 °C 997.5 hPa SW 11.3 km/h 19.3 km/h 87% 0.25 mm
21:44 7.1 °C 5.1 °C 997.5 hPa WSW 12.9 km/h 24.1 km/h 87% 0.25 mm
21:49 7.3 °C 5.2 °C 997.5 hPa WSW 12.9 km/h 27.4 km/h 86% 0.25 mm
21:54 7.5 °C 5.3 °C 997.2 hPa WSW 14.5 km/h 25.7 km/h 86% 0.25 mm
21:59 7.6 °C 5.2 °C 997.2 hPa SSE 12.9 km/h 29 km/h 85% 0.25 mm
22:04 7.6 °C 5.2 °C 997.2 hPa WSW 6.4 km/h 22.5 km/h 85% 0 mm
22:09 7.6 °C 5.2 °C 997.2 hPa SW 8 km/h 20.9 km/h 85% 0 mm
22:14 7.5 °C 5.2 °C 997.2 hPa WSW 12.9 km/h 25.7 km/h 85% 0 mm
22:19 7.6 °C 5.2 °C 997.2 hPa SW 12.9 km/h 20.9 km/h 85% 0 mm
22:24 7.6 °C 5.2 °C 997.2 hPa SW 11.3 km/h 25.7 km/h 85% 0 mm
22:29 7.6 °C 5.2 °C 997.2 hPa WSW 12.9 km/h 25.7 km/h 85% 0 mm
22:34 7.6 °C 5.2 °C 997.2 hPa WSW 12.9 km/h 24.1 km/h 85% 0 mm
22:39 7.7 °C 5.3 °C 996.8 hPa WSW 12.9 km/h 24.1 km/h 85% 0 mm
22:44 7.7 °C 5.3 °C 997.2 hPa WSW 12.9 km/h 24.1 km/h 85% 0 mm
22:49 7.7 °C 5.3 °C 996.8 hPa WSW 12.9 km/h 25.7 km/h 85% 0 mm
22:54 7.8 °C 5.4 °C 996.8 hPa West 11.3 km/h 25.7 km/h 85% 0 mm
22:59 7.9 °C 5.3 °C 996.8 hPa West 17.7 km/h 27.4 km/h 84% 0 mm
23:04 7.9 °C 5.4 °C 996.8 hPa WSW 16.1 km/h 29 km/h 84% 0 mm
23:09 7.9 °C 5.4 °C 996.8 hPa WSW 16.1 km/h 29 km/h 84% 0 mm
23:14 8 °C 5.3 °C 996.5 hPa WSW 11.3 km/h 24.1 km/h 83% 0 mm
23:19 8.1 °C 5.3 °C 996.5 hPa SW 25.7 km/h 25.7 km/h 83% 0 mm
23:24 8.1 °C 5.4 °C 996.5 hPa West 16.1 km/h 30.6 km/h 83% 0 mm
23:29 8.2 °C 5.4 °C 996.5 hPa West 12.9 km/h 32.2 km/h 83% 0 mm
23:34 8.2 °C 5.3 °C 996.5 hPa WSW 16.1 km/h 33.8 km/h 82% 0 mm
23:39 8.2 °C 5.3 °C 996.5 hPa WSW 16.1 km/h 33.8 km/h 82% 0 mm
23:44 8.3 °C 5.4 °C 996.5 hPa WSW 14.5 km/h 27.4 km/h 82% 0 mm
23:49 8.2 °C 5.2 °C 996.2 hPa WSW 12.9 km/h 27.4 km/h 81% 0 mm
23:54 7.9 °C 4.9 °C 996.2 hPa SW 16.1 km/h 30.6 km/h 81% 0 mm
23:59 7.7 °C 4.8 °C 996.2 hPa WSW 12.9 km/h 24.1 km/h 82% 0 mm
Buffalo, New York, USA
Compliments of Weather Underground - 2.5 mb